Montpelier, VT

10:10 AM EST on January 22, 2018 (GMT -0500)
Knapp State

Weather History for KMPV - September, 2013

Change the Weather History Date:

Sunday, September 22, 2013

  Actual Average Record
Temperature  
Mean Temperature 54 °F 55 °F  
Max Temperature 63 °F 66 °F 87 °F (1965)
Min Temperature 45 °F 44 °F 29 °F (1962)
Degree Days  
Heating Degree Days 11 10  
Month to date heating degree days 184 149  
Since 1 July heating degree days 277 257  
Cooling Degree Days 0 0  
Month to date cooling degree days 29 16  
Year to date cooling degree days 323 260  
Growing Degree Days 4 (Base 50)    
Moisture  
Dew Point 50 °F    
Average Humidity 84    
Maximum Humidity 100    
Minimum Humidity 67    
Precipitation  
Precipitation 0.64 in 0.12 in 1.61 in (1981)
Month to date precipitation 4.32 2.18  
Year to date precipitation 29.61 26.98  
Sea Level Pressure  
Sea Level Pressure 29.72 in    
Wind  
Wind Speed 8 mph (West)    
Max Wind Speed 17 mph    
Max Gust Speed 24 mph    
Visibility 9 miles    
Events Rain    
T = Trace of Precipitation, MM = Missing Value Source: NWS Daily Summary

Daily Weather History Graph

Daily Weather History Graph

Search for Another Location

Airport or City:

Trip Planner

Search our weather history database for the weather conditions in past years. The results will help you decide how hot, cold, wet, or windy it might be!

Date:

Astronomy

Sep. 22, 2013 Rise Set
Actual Time 6:37 AM EDT 6:47 PM EDT
Civil Twilight 6:08 AM EDT 7:16 PM EDT
Nautical Twilight 5:34 AM EDT 7:49 PM EDT
Astronomical Twilight 5:00 AM EDT 8:24 PM EDT
Moon 8:26 PM EDT 10:03 AM EDT
Length of Visible Light 13h 07m
Length of Day
12h 09m
Waning Gibbous, 89% of the Moon is Illuminated
Sep 22
Waning Gibbous
Sep 26
Last Quarter
Oct 4
New
Oct 11
First Quarter
Oct 18
Full

Hourly Weather History & Observations

Time (EDT) Temp. Windchill Dew Point Humidity Pressure Visibility Wind Dir Wind Speed Gust Speed Precip Events Conditions
12:51 AM 63.0 °F - 60.1 °F 90% 29.62 in 10.0 mi South 12.7 mph - 0.04 in Rain Light Rain
1:51 AM 63.0 °F - 61.0 °F 93% 29.61 in 4.0 mi WSW 8.1 mph - 0.09 in Rain Rain
1:55 AM 62.6 °F - 60.8 °F 94% 29.62 in 2.5 mi West 9.2 mph - 0.06 in Rain Heavy Rain
1:58 AM 62.6 °F - 60.8 °F 94% 29.62 in 1.8 mi WNW 12.7 mph 19.6 mph 0.12 in Rain Heavy Rain
2:06 AM 60.8 °F - 59.0 °F 94% 29.62 in 1.5 mi WSW 6.9 mph 19.6 mph 0.26 in Rain Heavy Rain
2:26 AM 59.0 °F - 57.2 °F 94% 29.62 in 2.0 mi West 3.5 mph - 0.44 in Rain Heavy Rain
2:37 AM 59.0 °F - 57.2 °F 94% 29.62 in 4.0 mi Calm Calm - 0.47 in Rain Rain
2:51 AM 59.0 °F - 57.9 °F 96% 29.62 in 8.0 mi Calm Calm - 0.48 in Rain Light Rain
3:51 AM 57.9 °F - 57.0 °F 97% 29.62 in 10.0 mi SE 6.9 mph - 0.07 in Rain Light Rain
4:01 AM 57.2 °F - 57.2 °F 100% 29.62 in 10.0 mi SSE 5.8 mph - 0.00 in   Overcast
4:51 AM 57.9 °F - 55.9 °F 93% 29.63 in 10.0 mi Calm Calm - 0.00 in   Overcast
5:34 AM 57.2 °F - 55.4 °F 94% 29.63 in 10.0 mi South 4.6 mph - N/A   Mostly Cloudy
5:51 AM 57.0 °F - 55.0 °F 93% 29.64 in 10.0 mi SSW 4.6 mph - N/A   Scattered Clouds
6:51 AM 57.0 °F - 55.0 °F 93% 29.65 in 10.0 mi South 3.5 mph - N/A   Overcast
7:24 AM 57.2 °F - 53.6 °F 88% 29.66 in 10.0 mi West 4.6 mph - N/A   Overcast
7:51 AM 57.0 °F - 54.0 °F 89% 29.66 in 10.0 mi Variable 3.5 mph - N/A   Overcast
8:05 AM 57.2 °F - 53.6 °F 88% 29.67 in 10.0 mi WSW 3.5 mph - N/A   Overcast
8:51 AM 55.0 °F - 50.0 °F 83% 29.68 in 10.0 mi WSW 11.5 mph - N/A   Mostly Cloudy
9:51 AM 57.0 °F - 48.9 °F 74% 29.70 in 10.0 mi Calm Calm - N/A   Overcast
10:02 AM 57.2 °F - 50.0 °F 77% 29.70 in 10.0 mi Variable 4.6 mph - N/A   Overcast
10:24 AM 57.2 °F - 48.2 °F 72% 29.71 in 10.0 mi Calm Calm - N/A   Overcast
10:51 AM 57.0 °F - 48.0 °F 72% 29.71 in 10.0 mi West 5.8 mph - N/A   Mostly Cloudy
11:51 AM 59.0 °F - 48.9 °F 69% 29.72 in 10.0 mi NW 9.2 mph - N/A   Overcast
12:51 PM 54.0 °F - 48.9 °F 83% 29.74 in 10.0 mi NW 10.4 mph 18.4 mph 0.00 in Rain Light Rain
1:51 PM 54.0 °F - 46.9 °F 77% 29.76 in 10.0 mi WNW 15.0 mph 23.0 mph 0.00 in   Overcast
2:22 PM 53.6 °F - 46.4 °F 77% 29.76 in 10.0 mi WNW 13.8 mph 20.7 mph N/A   Overcast
2:51 PM 53.1 °F - 46.9 °F 80% 29.78 in 10.0 mi NNW 10.4 mph - N/A   Overcast
3:51 PM 51.1 °F - 46.0 °F 83% 29.80 in 10.0 mi NNW 10.4 mph 17.3 mph 0.00 in Rain Light Rain
4:06 PM 51.8 °F - 44.6 °F 76% 29.79 in 10.0 mi NNW 5.8 mph - 0.00 in   Overcast
4:51 PM 52.0 °F - 44.1 °F 74% 29.81 in 10.0 mi NW 12.7 mph 21.9 mph 0.00 in   Overcast
5:51 PM 51.1 °F - 43.0 °F 74% 29.83 in 10.0 mi WNW 10.4 mph - N/A   Mostly Cloudy
6:51 PM 48.9 °F - 42.1 °F 77% 29.86 in 10.0 mi WNW 15.0 mph 21.9 mph N/A   Mostly Cloudy
7:51 PM 46.9 °F - 41.0 °F 80% 29.88 in 10.0 mi NW 9.2 mph 20.7 mph N/A   Mostly Cloudy
8:51 PM 46.9 °F - 42.1 °F 83% 29.90 in 10.0 mi NW 6.9 mph - N/A   Overcast
9:51 PM 46.0 °F 41.0 °F 39.9 °F 79% 29.92 in 10.0 mi WNW 10.4 mph - N/A   Mostly Cloudy
10:15 PM 46.4 °F 41.9 °F 39.2 °F 76% 29.90 in 10.0 mi NW 9.2 mph 17.3 mph N/A   Overcast
10:51 PM 46.0 °F 41.0 °F 39.9 °F 79% 29.92 in 10.0 mi WNW 10.4 mph 18.4 mph N/A   Overcast
11:51 PM 46.0 °F 40.6 °F 39.0 °F 76% 29.92 in 10.0 mi NW 11.5 mph 18.4 mph N/A   Mostly Cloudy